• Join FlightAware (Why Join?)
  • Login
  • US Flag 
08:51AM EDT


 

Airport Tracker/Info


-or-


 

Live Flight TrackerFlight Track Log ✈ AAL1292 ✈ 30-Apr-2013 ✈ KTUL - KDFW

Flight Track Log - Related Links

Times and Time Zones

All times are in EDT time to prevent confusion due to time zone crossing. See the AAL1292 flight status page for this flight to view local times or setup timezone preferences in your user account.

Time Position Orientation Groundspeed Altitude Reporting Facility
EDT Latitude Longitude Course Direction KTS MPH feet Rate Location/Type
01:50PM 36.1953 -95.9125 125° Southeast 175 201 1,600  Level Kansas City Center
01:51PM 36.1953 -95.9617 270° West 194 223 3,100 2,220 Climbing Kansas City Center
01:52PM 36.1689 -96.0014 231° Southwest 238 274 4,900 2,700 Climbing Kansas City Center
01:52PM 36.1503 -96.0011 179° South 253 291 5,900 3,000 Climbing Kansas City Center
01:53PM 35.9417 -95.9810 162° South  Level Estimated
01:53PM 36.0992 -95.9958 175° South 252 290 8,000  Level Kansas City Center
01:53PM 36.0786 -95.9947 177° South 278 320 8,700 1,980 Climbing Kansas City Center
01:54PM 35.8968 -95.8859 120° Southeast  Level FlightAware Approximate
01:54PM 36.0200 -95.9833 171° South 274 315 10,100  Level Kansas City Center
01:55PM 35.8120 -95.9197 158° South  Level Estimated
01:55PM 35.9328 -95.9683 172° South 302 348 13,100  Level Kansas City Center
01:56PM 35.7611 -95.8295 125° Southeast  Level FlightAware Approximate
01:56PM 35.8389 -95.9497 171° South 328 377 15,000  Level Kansas City Center
01:57PM 35.7208 -95.9311 173° South 349 402 18,300 2,520 Climbing Kansas City Center
01:58PM 35.6197 -95.9117 171° South 362 417 20,300 2,100 Climbing Kansas City Center
01:58PM 35.5661 -95.9056 175° South 374 430 21,500 1,140 Climbing Fort Worth Center
01:59PM 35.4617 -95.8869 172° South 380 437 22,000 240 Climbing Fort Worth Center
02:00PM 35.3717 -95.8733 173° South 380 437 22,000  Level Fort Worth Center
02:01PM 35.2653 -95.8550 172° South 380 437 22,000  Level Fort Worth Center
02:02PM 35.1608 -95.8392 173° South 380 437 22,000  Level Fort Worth Center
02:03PM 35.0583 -95.8208 172° South 380 437 22,000  Level Fort Worth Center
02:04PM 34.9536 -95.7997 171° South 380 437 22,000  Level Fort Worth Center
02:05PM 34.8283 -95.7894 176° South 393 452 22,000  Level Fort Worth Center
02:06PM 34.7244 -95.8244 195° South 388 447 22,000  Level Fort Worth Center
02:07PM 34.6208 -95.8642 198° South 388 447 22,000  Level Fort Worth Center
02:08PM 34.5169 -95.8989 195° South 388 447 22,000  Level Fort Worth Center
02:09PM 34.4108 -95.9358 196° South 388 447 22,000  Level Fort Worth Center
02:10PM 34.3069 -95.9728 196° South 393 452 22,000  Level Fort Worth Center
02:11PM 34.2031 -96.0072 195° South 398 458 22,000  Level Fort Worth Center
02:12PM 34.0992 -96.0442 196° South 393 452 22,000  Level Fort Worth Center
02:13PM 33.9931 -96.0808 196° South 393 452 22,000 -600 Level Fort Worth Center
02:14PM 33.8892 -96.1175 196° South 393 452 20,800 -1,620 Descending Fort Worth Center
02:15PM 33.7933 -96.1489 195° South 375 432 18,800 -2,100 Descending Fort Worth Center
02:16PM 33.7083 -96.1850 199° South 368 423 16,700 -2,280 Descending Fort Worth Center
02:17PM 33.6150 -96.2536 211° Southwest 352 405 14,300 -2,160 Descending Fort Worth Center
02:18PM 33.5319 -96.3119 210° Southwest 352 405 12,400 -1,500 Descending Fort Worth Center
02:19PM 33.4531 -96.3653 209° Southwest 346 398 11,300 -900 Descending Fort Worth Center
02:20PM 33.3825 -96.4183 212° Southwest 321 369 10,600 -1,200 Descending Fort Worth Center
02:21PM 33.3267 -96.4886 226° Southwest 303 349 9,000 -1,440 Descending Fort Worth Center
02:22PM 33.2961 -96.5758 247° West 290 334 7,800 -1,440 Descending Fort Worth Center
02:23PM 33.2778 -96.6656 256° West 280 322 6,200 -1,440 Descending Fort Worth Center
02:24PM 33.2575 -96.7525 254° West 280 322 5,000 -600 Descending Fort Worth Center
02:25PM 33.2411 -96.8322 256° West 280 322 5,000  Level Fort Worth Center
02:26PM 33.2228 -96.9217 256° West 280 322 5,000  Level Fort Worth Center
02:27PM 33.1750 -97.0014 234° Southwest 268 308 5,000 -360 Level Fort Worth Center
02:28PM 33.1167 -97.0289 202° Southwest 249 287 4,300 -840 Descending Fort Worth Center
02:29PM 33.0667 -97.0167 168° South 209 241 3,600 -960 Descending Dallas / Fort Worth TRACON